This is the latest recevied weather packets stored in our database for station/object KE0QIB. If no packets are shown the sender has not sent any weather packets the latest 10 day(s).
| Time | Temp. | Humidity | Pressure | Rain* | Wind** | Luminosity | Snow |
|---|---|---|---|---|---|---|---|
| 1777492330 | 12.22° C | 40% | 1003.4 hPa | 0 mm | - | - | - |
| 1777492030 | 12.22° C | 42% | 1003.4 hPa | 0 mm | - | - | - |
| 1777491730 | 11.67° C | 44% | 1003.4 hPa | 0 mm | - | - | - |
| 1777491430 | 11.67° C | 50% | 1003.7 hPa | 0 mm | - | - | - |
| 1777491130 | 10.56° C | 48% | 1003.7 hPa | 0 mm | - | - | - |
| 1777490830 | 10° C | 49% | 1003.7 hPa | 0 mm | - | - | - |
| 1777490530 | 10° C | 49% | 1003.9 hPa | 0 mm | - | - | - |
| 1777490230 | 10.56° C | 48% | 1003.9 hPa | 0 mm | - | - | - |
| 1777489930 | 11.11° C | 46% | 1003.9 hPa | 0 mm | - | - | - |
| 1777489630 | 11.67° C | 43% | 1003.6 hPa | 0 mm | - | - | - |
| 1777489330 | 11.67° C | 41% | 1003.6 hPa | 0 mm | - | - | - |
| 1777489030 | 11.67° C | 39% | 1003.6 hPa | 0 mm | - | - | - |
| 1777488730 | 11.67° C | 40% | 1004 hPa | 0 mm | - | - | - |
| 1777488430 | 11.67° C | 42% | 1004 hPa | 0 mm | - | - | - |
| 1777488130 | 11.67° C | 44% | 1004 hPa | 0 mm | - | - | - |
| 1777487830 | 11.11° C | 45% | 1004 hPa | 0 mm | - | - | - |
| 1777487530 | 11.67° C | 38% | 1004 hPa | 0 mm | - | - | - |
| 1777487230 | 11.67° C | 42% | 1004 hPa | 0 mm | - | - | - |
| 1777486930 | 11.67° C | 42% | 1004 hPa | 0 mm | - | - | - |
| 1777486630 | 11.67° C | 40% | 1004 hPa | 0 mm | - | - | - |
| 1777486330 | 11.67° C | 40% | 1004 hPa | 0 mm | - | - | - |
| 1777486030 | 11.67° C | 42% | 1003.9 hPa | 0 mm | - | - | - |
| 1777485730 | 12.22° C | 37% | 1003.9 hPa | 0 mm | - | - | - |
| 1777485430 | 12.22° C | 40% | 1003.9 hPa | 0 mm | - | - | - |
| 1777485130 | 11.67° C | 41% | 1004.4 hPa | 0 mm | - | - | - |
* Rain latest hour (hover to see other rain measurements)
** Current wind speed in m/s (hover to see current wind gust speed)